Regional Weather Roundup
Issued by NWS State College, PA

Home | Current Version | Previous Version | Text Only | Print | Product List | Glossary On
Versions: 1 2 3 4 5 6 7 8 9 10 11 12 13 14 15 16 17 18 19 20 21 22 23 24 25 26 27 28 29 30 31 32 33 34 35 36 37 38 39 40 41 42 43 44 45 46 47 48 49 50
000
ASUS41 KCTP 160510
RWRCTP

REGIONAL WEATHER ROUNDUP
NATIONAL WEATHER SERVICE STATE COLLEGE PA
100 AM EDT WED APR 16 2014

Note: "fair" indicates few or no clouds below 12,000 feet with no
significant weather and/or obstructions to visibility.

* = STATION THAT DOES NOT REPORT PRECIPITATION /E.G. RAIN...SNOW...ETC/
    THUNDER OR FOG.

PAZ002>004-007>009-013>016-020>023-029>032-160600-
WESTERN PENNSYLVANIA

CITY           SKY/WX    TMP DP  RH WIND       PRES   REMARKS
ERIE           CLEAR     27  14  58 NW9       30.23R
MEADVILLE      NOT AVBL
FRANKLIN*      PTCLDY    23  16  74 NW7       30.17R
NEW CASTLE     FLURRIES  25  22  88 CALM      30.21S
BEAVER COUNTY  NOT AVBL
BUTLER*        CLOUDY    27  19  74 W3        30.18S
PITTSBURGH INT PTCLDY    27  21  78 NW12      30.18R
PITTSBURGH     PTCLDY    28  19  69 NW5       30.16R
INDIANA*       MOCLDY    25  19  80 NW8G16    30.14S
LATROBE        MOCLDY    28  19  69 NW6       30.18R
WASHINGTON CO* PTCLDY    27  18  69 W6        30.20R
$$

PAZ004>006-010>012-017>019-024>028-033>037-041-042-045-046-049>053-160600-
CENTRAL PENNSYLVANIA

CITY           SKY/WX    TMP DP  RH WIND       PRES   REMARKS
BRADFORD       FLURRIES  20  10  65 N17G26    30.07R WCI   5
DUBOIS         PTCLDY    24  13  62 NW17      30.09S WCI  11
CLEARFIELD     MOCLDY    25  12  58 NW13G31   30.10R WCI  14
JOHNSTOWN      MOCLDY    22  16  78 NW20G26   30.05R WCI   7
ALTOONA        MOCLDY    27  15  61 NW23G29   30.09R WCI  12
STATE COLLEGE    N/A     29   8  42 NW14G26   30.09R
WILLIAMSPORT   MOCLDY    30  12  47 NW15G23   30.08R
SELINSGROVE    MOCLDY    32  15  49 NW15G25   30.08R
FT INDIANTOWN  CLOUDY    33  18  53 NW10      30.07R
CAPITAL CITY   MOCLDY    34  15  46 NW17G24   30.10R
HARRISBURG     MOCLDY    35  18  49 NW15G29   30.08R
YORK           MOCLDY    34  18  52 N13G23    30.10R
$$

PAZ038>040-043-044-047-048-054-055-060>062-067>071-160600-
EASTERN PENNSYLVANIA

CITY           SKY/WX    TMP DP  RH WIND       PRES   REMARKS
SCRANTON       CLOUDY    30  20  66 N14G30    30.02R
MOUNT POCONO   MIX PCPN  27  20  75 NW17G31   29.90R WCI  14
ALLENTOWN      CLOUDY    35  24  64 NW18G24   29.98R
QUAKERTOWN*    CLOUDY    34  27  75 W12G20    30.01R
READING        CLOUDY    36  23  59 NW21G29   30.03R
LANCASTER      CLOUDY    34  19  54 NW20G26   30.04R
COATESVILLE    NOT AVBL
POTTSTOWN      CLOUDY    35  26  69 NW13G22   30.01R
BLUE BELL      CLOUDY    37  32  81 NW12G22   29.98R
DOYLESTOWN     CLOUDY    34  26  72 NW12G28   29.96S
WILLOW GROVE   NOT AVBL
NORTH PHILA    CLOUDY    38  27  64 NW17G24   29.99S
PHILADELPHIA   CLOUDY    39  29  67 NW16G23   30.02R
$$



USA.gov is the U.S. government's official web portal to all federal, state and local government web resources and services.